This is the latest recevied weather packets stored in our database for station/object K4DNM. If no packets are shown the sender has not sent any weather packets the latest 1 day(s).
| Time | Temp. | Humidity | Pressure | Rain* | Wind** | Luminosity | Snow |
|---|---|---|---|---|---|---|---|
| 1778027352 | 22.78° C | 54% | 1013.7 hPa | 0 mm | 1.34 m/s, 218° | 0 W/m² | - |
| 1778027050 | 22.78° C | 53% | 1013.7 hPa | 0 mm | 1.79 m/s, 173° | 0 W/m² | - |
| 1778026750 | 22.78° C | 53% | 1013.6 hPa | 0 mm | 2.24 m/s, 176° | 0 W/m² | - |
| 1778026451 | 23.33° C | 53% | 1013.7 hPa | 0 mm | 1.79 m/s, 236° | 0 W/m² | - |
| 1778026149 | 23.33° C | 53% | 1013.6 hPa | 0 mm | 1.79 m/s, 204° | 0 W/m² | - |
| 1778025852 | 23.33° C | 53% | 1013.5 hPa | 0 mm | 1.79 m/s, 186° | 2 W/m² | - |
| 1778025551 | 23.33° C | 53% | 1013.4 hPa | 0 mm | 1.79 m/s, 194° | 3 W/m² | - |
| 1778025251 | 23.33° C | 52% | 1013.4 hPa | 0 mm | 1.79 m/s, 188° | 6 W/m² | - |
| 1778024952 | 23.89° C | 52% | 1013.4 hPa | 0 mm | 1.79 m/s, 217° | 9 W/m² | - |
| 1778024651 | 23.89° C | 52% | 1013.3 hPa | 0 mm | 1.79 m/s, 197° | 12 W/m² | - |
| 1778024351 | 23.89° C | 51% | 1013.3 hPa | 0 mm | 1.79 m/s, 146° | 18 W/m² | - |
| 1778024050 | 23.89° C | 51% | 1013.3 hPa | 0 mm | 1.79 m/s, 201° | 23 W/m² | - |
| 1778023762 | 24.44° C | 51% | 1013.4 hPa | 0 mm | 1.79 m/s, 179° | 29 W/m² | - |
| 1778023445 | 24.44° C | 50% | 1013.2 hPa | 0 mm | 1.79 m/s, 206° | 37 W/m² | - |
| 1778023145 | 24.44° C | 50% | 1013.2 hPa | 0 mm | 1.79 m/s, 167° | 39 W/m² | - |
| 1778022844 | 24.44° C | 51% | 1013.3 hPa | 0 mm | 1.79 m/s, 264° | 32 W/m² | - |
| 1778022545 | 24.44° C | 50% | 1013.2 hPa | 0 mm | 2.24 m/s, 171° | 26 W/m² | - |
| 1778022244 | 24.44° C | 50% | 1013.2 hPa | 0 mm | 1.79 m/s, 153° | 23 W/m² | - |
| 1778021945 | 24.44° C | 50% | 1013.2 hPa | 0 mm | 1.34 m/s, 224° | 38 W/m² | - |
| 1778021645 | 24.44° C | 50% | 1013.2 hPa | 0 mm | 1.34 m/s, 156° | 46 W/m² | - |
| 1778021346 | 24.44° C | 50% | 1013.3 hPa | 0 mm | 1.79 m/s, 187° | 45 W/m² | - |
| 1778021105 | 25° C | 50% | 1013.4 hPa | 0 mm | 2.24 m/s, 185° | 40 W/m² | - |
| 1778020807 | 25° C | 49% | 1013.3 hPa | 0 mm | 2.24 m/s, 308° | 37 W/m² | - |
| 1778020446 | 25° C | 49% | 1013.4 hPa | 0 mm | 1.79 m/s, 196° | 42 W/m² | - |
| 1778020143 | 25° C | 49% | 1013.5 hPa | 0 mm | 1.79 m/s, 178° | 37 W/m² | - |
* Rain latest hour (hover to see other rain measurements)
** Current wind speed in m/s (hover to see current wind gust speed)